Regional Weather Roundup
Issued by NWS

Home | Current Version | Previous Version | Graphics & Text | Print | Product List | Glossary On
Versions: 1 2 3 4 5 6 7 8 9 10 11 12 13 14 15 16 17 18 19 20 21 22 23 24 25 26 27 28 29 30 31 32 33 34 35 36 37 38 39 40 41 42 43 44 45 46 47 48 49 50
000
ASUS43 KMKX 030214
RWRWI

WISCONSIN REGIONAL WEATHER ROUNDUP
NATIONAL WEATHER SERVICE MILWAUKEE/SULLIVAN WI
900 PM CDT TUE JUN 02 2015

NOTE: "FAIR" INDICATES FEW OR NO CLOUDS BELOW 12,000 FEET WITH NO
SIGNIFICANT WEATHER AND/OR OBSTRUCTIONS TO VISIBILITY.

WIZ001-002-006>008-014>016-023>028-030300-
NORTHWEST WISCONSIN

CITY           SKY/WX    TMP DP  RH WIND       PRES   REMARKS
SUPERIOR ARPT  CLOUDY    48  40  73 N3        29.95S
ASHLAND        MOCLDY    67  48  50 S6        29.95S
HAYWARD        CLOUDY    67  48  50 S7        29.97S
SIREN          CLOUDY    68  52  56 S8G16     29.93F
CUMBERLAND     CLOUDY    64  52  63 SE8       29.96F
RICE LAKE      CLOUDY    67  51  57 SE7       29.98S
CHETEK         CLOUDY    66  53  62 MISG      29.97S
LADYSMITH      MOCLDY    65  49  56 SE3       30.01R
EAU CLAIRE     PTCLDY    67  48  50 S10       29.97F
MENOMONIE      MOCLDY    67  52  59 SE6       29.97S
NEW RICHMOND   MOCLDY    68  52  56 SE7       29.95S
OSCEOLA        MOCLDY    68  53  57 SE7       29.95F
$$

WIZ003>005-009-010-017-018-030300-
NORTH CENTRAL WISCONSIN

CITY           SKY/WX    TMP DP  RH WIND       PRES   REMARKS
MANITOWISH WTR PTCLDY    60  39  46 S5        30.01S
ARBOR VITAE    PTCLDY    63  40  43 S3        30.02S
WOODRUFF       PTCLDY    63  40  43 S3        30.02S
RHINELANDER    MOCLDY    62  40  44 SE3       30.03F
EAGLE RIVER    MOCLDY    60  37  41 SE3       30.02S
LAND O LAKES   MOCLDY    60  37  42 CALM      30.03S
PHILLIPS       CLOUDY    62  44  51 SE3       30.00S
TOMAHAWK       MOCLDY    55  46  71 CALM      30.03S
MEDFORD        MOCLDY    59  45  59 S3        30.02S
MERRILL        MOCLDY   N/A N/A N/A S5        30.03S
$$

WIZ029-030-035-036-043>047-030300-
CENTRAL WISCONSIN

CITY           SKY/WX    TMP DP  RH WIND       PRES   REMARKS
WAUSAU         MOCLDY    64  44  48 SE7       30.01S
MOSINEE        CLEAR     63  43  48 S6        30.03F
MARSHFIELD     PTCLDY    62  46  55 S5        30.02S
STEVENS POINT  MOCLDY    62  42  47 SE5       30.03S
WAUPACA        MOCLDY    63  40  44 E7        30.05R
WAUTOMA        PTCLDY    61  48  62 E3        30.04S
WISC RAPIDS    MOCLDY    64  41  42 S5        30.03F
CAMP DOUGLAS   MOCLDY    64  48  55 S3        30.02S
$$

WIZ011>013-019>022-031-037>040-048>050-030300-
NORTHEAST WISCONSIN

CITY           SKY/WX    TMP DP  RH WIND       PRES   REMARKS
ANTIGO         MOCLDY    57  45  62 SE9       30.05S
SHAWANO        PTCLDY    61  40  47 SE6       30.05F
OCONTO         CLEAR     58  36  43 S6        30.06F
STURGEON BAY   CLEAR     55  32  41 S5        30.11S
GREEN BAY      PTCLDY    57  41  55 SE6       30.06F
MANITOWOC      CLEAR     50  46  86 S3        30.09S
APPLETON       PTCLDY    61  41  48 SE8       30.06F
CLINTONVILLE   MOCLDY    59  39  47 SE3       30.05S
OSHKOSH        PTCLDY    60  45  57 SE7       30.05S
$$

WIZ032>034-041-042-053>061-030300-
SOUTHWEST WISCONSIN

CITY           SKY/WX    TMP DP  RH WIND       PRES   REMARKS
LA CROSSE      PTCLDY    68  51  54 SE9       29.99S
SPARTA         CLEAR     60  48  63 CALM      30.03R
VIROQUA        PTCLDY    63  48  57 S6        30.03S
BOSCOBEL       PTCLDY    62  51  67 SE3       30.02F
PRAIRIE DU CHI PTCLDY    64  49  59 E5        30.01S
PLATTEVILLE    PTCLDY    64  49  57 SE6       30.03F
$$

WIZ056-057-062-063-064-067-068-030300-
SOUTH CENTRAL WISCONSIN

CITY           SKY/WX    TMP DP  RH WIND       PRES   REMARKS
REEDSBURG      MOCLDY    64  47  53 S3        30.03S
BARABOO/DELLS  MOCLDY    63  46  54 S3        30.04S
LONE ROCK      PTCLDY    63  46  54 CALM      30.03S
MINERAL POINT  PTCLDY    66  45  45 S3        30.04S
MADISON        PTCLDY    67  45  45 S7        30.04S
MIDDLETON      PTCLDY    66  44  44 CALM      30.04F
WATERTOWN      PTCLDY    61  45  55 SE6       30.06S
MONROE         PTCLDY    64  45  48 SE7       30.05S
JANESVILLE     CLEAR     64  46  52 SE9       30.05S
$$

WIZ051-052-058>065-066-070>072-030300-
SOUTHEAST WISCONSIN

CITY           SKY/WX    TMP DP  RH WIND       PRES   REMARKS
MILWAUKEE      MOCLDY    52  44  74 SE6       30.09S
WAUKESHA       PTCLDY    55  37  50 SE6       30.09S
MILWAUKEE/TIMM CLEAR     57  39  51 SE5       30.09S
RACINE         PTCLDY    52  45  77 SE3       30.11S
BURLINGTON     PTCLDY    56  44  62 E6        30.09S
KENOSHA        PTCLDY    54  45  71 E7        30.09S
FOND DU LAC    PTCLDY    59  44  57 SE10      30.06S
SHEBOYGAN      PTCLDY    54  43  66 S3        30.08F
WEST BEND      PTCLDY    54  39  58 CALM      30.08S
JUNEAU         PTCLDY    60  48  64 E8        30.07S
$$

LSZ147-162-030300-
LAKE SUPERIOR

STATION/POSITION TIME  TEMP    WIND        PRES    WAVE
                       AIR SEA DIR/SP/G            HT/PER
                 (UTC) (F)     (DEG/KT/KT) (MB)    (FT/S)
W MID LAKE BUOY  0150   44 37  100/  8/ 10   N/A     1
DEVILS ISLAND    0200   47      10/  8/  9   N/A
PORT WING        0100   43      10/  6/  8   N/A
SAXON HARBOR     0100   71      CALM  /  5   N/A
$$

LMZ867-665-643>646-030300-
LAKE MICHIGAN

STATION/POSITION TIME  TEMP    WIND        PRES    WAVE
                       AIR SEA DIR/SP/G            HT/PER
                 (UTC) (F)     (DEG/KT/KT) (MB)    (FT/S)
CHAMBERS ISLAND  0100   62     150/  5/ 10   N/A
N MID LAKE BUOY  0150   42 37  190/  8/  8   N/A     0
NORTHPORT PIER   0100   49     160/  8/ 11   N/A
SISTER BAY       0118   54     140/ 12/ 15   N/A
ALGOMA LAKESHORE 0139          190/  3/  5   N/A
KEWAUNEE LAKESHO 0100   51     180/  4/  7   N/A
SHEBOYGAN LAKESH 0200   49     180/  5/  5   N/A
PORT WASHINGTON  0140   50      CALM  /  2   N/A
ATWATER BUOY     0100   47 49   20/  2/  2   N/A
MILWAUKEE LAKESH 0100   48      60/  4/  5   N/A
S MID LAKE BUOY  0150   45 38   40/  6/  8   N/A     0
KENOSHA   LAKESH 0200   52     140/  3/  3   N/A
$$

TC  - TEMPERATURE IN CELSIUS
VSB - VISIBILITY IN STATUTE MILES
WCI - WIND CHILL INDEX
HX  - HEAT INDEX



USA.gov is the U.S. government's official web portal to all federal, state and local government web resources and services.